Location: Long Point Provincial Park
(42.5794°N, 80.4103°W)
Time: 10:08:06
(UTC-04:00)

ISS - Visible Passes

Search period start: 20 September 2018 00:00
Search period end: 30 September 2018 00:00
Orbit: 402 x 408 km, 51.6° (Epoch: 20 September)

Date Brightness Start Highest point End Pass type
(mag) Time Alt. Az. Time Alt. Az. Time Alt. Az.
20 Sep -1.9 20:43:33 10° S 20:44:50 17° SSE 20:44:50 17° SSE visible
21 Sep -1.7 19:53:04 10° SSE 19:54:23 12° SE 19:55:43 10° ESE visible
21 Sep -1.8 21:27:09 10° WSW 21:28:37 24° WSW 21:28:37 24° WSW visible
22 Sep -3.7 20:35:17 10° SW 20:38:29 51° SE 20:39:25 37° E visible
23 Sep -2.7 19:43:44 10° SSW 19:46:35 27° SE 19:49:27 10° ENE visible
23 Sep -2.5 21:19:51 10° W 21:22:42 40° NW 21:22:42 40° NW visible
24 Sep -3.6 20:27:37 10° WSW 20:30:55 68° NNW 20:33:05 19° NE visible
24 Sep -0.4 22:05:18 10° WNW 22:05:46 12° WNW 22:05:46 12° WNW visible
25 Sep -1.9 21:12:48 10° WNW 21:15:36 25° NNW 21:16:00 25° N visible
26 Sep -2.4 20:20:21 10° W 20:23:25 35° NNW 20:26:07 12° NE visible
26 Sep -0.4 21:58:19 10° NW 21:58:47 12° NW 21:58:47 12° NW visible
27 Sep -1.6 21:05:50 10° WNW 21:08:17 19° N 21:08:49 18° N visible
28 Sep -1.7 20:13:17 10° WNW 20:16:00 23° NNW 20:18:42 10° NE visible
28 Sep -0.5 21:51:03 10° NW 21:51:26 12° NW 21:51:26 12° NW visible
29 Sep -1.5 20:58:44 10° NW 21:00:58 17° N 21:01:20 16° N visible
